Temperature
14 14 14 14 14 14 14 14 14 14 14 14 14 14 14 14 14 14 14 14 14 14 14 14 15 15 15 15 15 15 15 15 15 15 15 15 15 15 15 15 15 15 15
14 14 14 14 14 13 13 13 13 13 13 13 13 13 13 14 14 14 14 14 14 14 14 14 14 14 15 15 15 15 15 15 15 15 15 15 15 15 15 15 15 15 15
14 14 14 13 13 13 13 13 13 13 13 13 13 13 13 13 13 13 14 14 14 14 14 14 14 14 14 15 14 14 14 15 15 14 14 14 14 14 14 14 14 14 15
14 13 13 13 13 13 13 13 13 13 13 13 13 13 13 13 13 13 13 13 14 14 14 14 14 14 14 14 14 14 14 14 14 14 14 14 14 14 14 14 14 14 14
13 13 13 13 12 12 12 12 12 12 12 12 12 12 12 12 12 13 13 13 13 13 14 14 14 14 14 14 14 14 14 14 14 14 14 13 13 14 14 14 14 14 14
13 13 12 12 12 12 12 12 12 12 12 12 12 12 12 12 12 12 13 13 13 13 13 13 14 14 14 14 14 14 14 14 14 13 13 13 13 13 14 14 14 14 14
12 12 12 12 12 12 12 12 12 12 12 12 12 12 12 12 12 12 12 12 13 13 13 13 13 13 13 13 13 14 14 14 13 13 13 13 13 13 13 13 13 13 13
12 12 12 12 12 11 11 11 11 11 11 11 11 11 11 12 12 12 12 12 12 12 12 13 13 13 13 13 13 13 13 13 13 13 12 12 13 13 13 13 13 13 13
11 11 11 11 11 11 11 11 11 11 11 11 11 11 11 11 11 11 12 12 12 12 12 12 12 12 12 12 12 13 13 12 12 12 12 12 12 12 12 12 12 12 12
11 11 11 11 11 11 10 10 11 11 11 11 11 11 11 11 11 11 11 11 11 11 11 12 12 12 12 12 12 12 12 12 11 11 11 11 12 12 12 12 12 12 12
10 10 10 10 10 10 10 10 10 10 10 10 10 10 10 10 10 10 10 11 11 11 11 11 11 11 12 11 11 11 11 11 11 11 11 11 11 11 11 11 11 11 11
10 10 10 10 10 10 10 10 9 10 10 10 10 10 10 10 10 10 10 10 10 11 11 11 11 11 11 11 11 11 11 11 10 10 10 10 10 11 11 11 11 11 11
9 9 9 9 9 10 9 9 9 9 9 9 9 9 9 9 9 9 9 9 9 10 10 10 10 10 10 10 10 10 10 10 10 10 10 10 10 10 10 10 10 10 10
9 9 9 9 9 9 9 9 9 9 9 9 9 9 9 9 9 9 9 9 9 9 9 9 9 10 10 9 9 9 9 10 9 9 9 9 9 9 9 10 10 10 10
8 8 8 8 8 9 9 8 9 8 9 9 9 9 8 8 8 8 8 8 8 8 8 8 9 9 9 9 9 9 9 9 9 9 9 9 9 9 9 9 9 9 9
8 8 8 8 8 8 8 8 8 8 8 8 8 8 8 8 8 8 7 7 7 7 7 8 8 8 8 8 8 8 8 8 8 8 8 8 8 8 8 8 8 8 8
7 7 7 7 7 7 7 7 7 7 7 7 7 7 7 7 7 7 7 7 7 7 7 7 7 7 7 7 7 7 7 7 7 8 8 7 7 7 8 8 8 8 8
6 6 7 7 7 7 7 7 7 7 7 7 7 7 7 7 6 6 6 6 6 6 6 6 6 6 6 6 6 6 6 6 7 7 7 7 7 7 7 7 7 7 7
6 6 6 6 6 6 6 6 6 6 6 6 6 6 6 6 6 6 5 5 5 5 5 5 5 5 5 5 6 6 6 6 6 6 6 6 6 6 6 6 6 6 6
5 5 5 5 5 5 5 5 5 5 5 5 5 5 5 5 5 5 5 5 5 5 5 5 5 5 5 5 5 5 5 5 5 5 5 5 5 5 5 5 5 6 6
4 4 5 5 5 5 5 5 5 5 5 5 5 5 5 5 5 4 4 4 4 4 4 4 4 4 4 4 4 4 4 4 4 4 4 4 4 4 4 5 5 5 5
3 3 4 4 4 4 4 4 4 4 4 4 4 4 4 4 4 4 4 4 4 4 4 4 4 4 4 3 3 3 2 2 3 3 3 3 3 3 4 4 4 4 4
2 3 3 3 4 4 4 4 4 4 4 4 4 4 4 4 4 4 4 4 4 4 3 3 3 3 3 3 3 3 2 3 2 2 3 3 3 3 3 3 3 3 3
2 2 3 3 3 3 3 3 3 3 3 3 3 3 3 3 3 3 3 3 3 3 3 3 3 3 3 3 2 2 2 2 1 1 2 2 2 2 2 2 2 2 2
1 1 2 2 2 2 3 3 3 3 3 3 3 3 3 3 3 3 3 3 3 3 2 2 2 2 2 2 2 2 2 2 2 1 1 1 1 1 2 2 2 2 2
0 1 1 1 1 2 2 2 2 2 2 2 2 2 2 2 2 2 2 2 2 2 2 2 2 2 2 2 2 2 2 1 1 1 0 0 0 1 1 1 1 1 1
Wind_Speed
6 7 7 8 9 9 10 10 10 11 10 10 11 11 11 12 12 13 13 13 13 14 14 15 15 16 16 16 17 17 17 18 18 18 18 19 18 18 18 16 15 16 17
7 9 8 9 10 10 10 10 10 11 10 10 10 11 11 12 12 13 14 13 14 14 15 15 15 15 16 16 16 17 17 17 17 16 16 17 18 18 18 17 16 16 17
8 9 10 10 10 11 11 11 11 11 10 10 10 11 11 12 12 13 13 14 14 14 14 14 14 15 15 15 15 16 16 16 15 14 13 14 16 17 17 18 18 17 17
8 9 10 11 11 11 11 11 11 11 11 11 11 11 11 12 12 13 14 14 14 14 14 15 15 15 15 15 15 15 15 15 13 11 12 13 14 16 16 17 17 17 17
8 8 9 11 11 11 11 10 11 11 11 11 11 11 12 12 12 13 14 14 14 15 15 15 14 14 15 15 15 15 14 14 12 12 12 12 13 15 15 16 16 16 15
8 8 9 11 11 11 11 11 11 11 11 11 11 11 12 12 12 13 13 14 14 14 14 14 14 14 14 14 14 14 13 11 11 12 12 12 13 15 15 15 15 15 15
8 8 9 11 11 11 11 11 11 11 11 11 11 11 12 12 12 13 13 13 13 13 14 14 14 14 15 15 14 14 13 11 11 11 12 12 13 15 15 15 15 15 15
7 7 9 10 10 11 11 11 11 11 11 11 11 12 12 12 13 13 13 13 13 13 13 14 14 14 14 15 15 14 13 10 11 11 11 12 14 14 15 15 16 15 15
6 6 6 8 9 10 10 10 11 11 11 11 12 12 12 12 12 12 12 12 12 12 13 13 13 14 14 14 14 14 13 12 11 11 11 12 13 13 14 14 15 15 15
5 5 5 6 7 7 8 9 10 11 11 11 12 12 12 12 12 12 12 12 12 12 12 12 13 13 14 14 14 13 11 10 11 11 11 12 13 14 13 13 13 14 14
4 4 4 5 5 6 7 7 8 9 10 10 11 12 11 9 9 9 11 12 12 12 12 12 12 13 12 13 13 11 9 9 10 10 11 12 13 13 13 14 14 13 13
5 4 4 4 5 6 6 6 5 6 7 7 8 9 8 8 8 9 11 11 11 11 11 11 11 10 8 8 9 9 8 9 9 10 11 13 12 13 13 14 14 14 14
6 5 4 4 5 5 4 4 4 4 5 6 7 7 7 7 7 7 7 7 8 8 8 8 8 7 7 7 7 8 8 8 8 9 11 13 13 13 13 13 13 13 14
6 5 4 4 5 5 5 4 4 4 4 5 6 7 6 5 5 5 5 5 5 5 5 5 6 7 8 8 8 8 8 8 7 8 10 13 13 13 13 13 13 13 13
6 5 5 4 5 5 5 4 4 4 4 5 6 6 6 5 4 4 4 4 4 5 5 5 6 7 7 8 8 8 8 8 8 8 9 12 12 12 12 12 12 12 12
6 6 5 5 4 5 4 4 4 4 4 5 5 6 6 5 5 4 4 4 4 4 4 5 6 6 6 6 7 7 7 7 8 8 7 9 12 12 12 11 11 11 11
5 5 5 5 4 5 5 4 4 4 5 5 5 6 6 6 6 5 4 4 4 4 4 5 5 5 5 5 6 6 6 7 7 8 7 7 8 11 12 11 11 10 10
3 4 5 4 4 5 4 4 4 4 5 4 5 5 6 6 6 5 4 4 4 4 4 4 4 4 4 3 4 4 5 5 7 7 7 7 7 7 9 11 10 10 10
3 3 3 4 4 4 4 3 3 4 4 4 5 5 5 6 6 6 4 4 5 4 3 3 3 3 4 3 3 3 4 4 5 5 6 7 7 7 7 9 9 10 10
2 3 3 3 4 4 3 3 2 3 3 3 4 5 6 6 6 6 5 5 5 4 3 3 4 4 3 3 3 3 3 3 3 4 4 5 6 6 6 6 6 7 9
1 1 2 3 3 3 3 3 3 3 3 3 3 5 6 6 6 5 4 5 5 4 4 4 4 5 3 3 3 2 2 2 2 2 2 3 4 4 5 5 5 5 6
2 2 2 3 3 4 4 4 3 3 3 3 3 4 6 7 6 5 6 5 5 4 5 5 5 4 2 2 2 2 2 2 2 0 1 1 2 3 4 4 4 4 4
2 2 2 3 4 4 4 3 2 2 2 3 3 3 4 6 7 6 7 6 5 5 5 6 6 5 4 3 2 2 3 3 1 2 1 1 0 0 1 2 3 3 3
3 3 3 3 4 4 4 5 6 5 4 4 4 4 5 6 7 7 7 7 6 5 6 6 6 5 6 5 3 1 1 1 2 2 2 2 1 1 1 0 0 1 1
3 3 2 3 3 3 5 6 6 5 4 3 4 5 5 5 6 6 7 6 7 6 6 6 6 6 5 6 4 3 2 3 3 3 3 3 2 2 2 2 2 1 1
4 3 3 2 2 3 4 5 6 6 5 5 5 5 5 4 4 6 6 6 6 6 7 7 6 7 6 6 5 5 4 4 4 4 4 4 3 3 3 3 3 2 2
Wind_Direction
168 169 170 160 142 134 127 120 114 110 104 101 97 93 90 84 82 81 82 86 86 86 84 82 82 82 79 77 76 76 76 76 75 75 76 77 77 78 78 78 82 84 84
162 167 167 152 139 134 128 121 116 111 107 104 100 96 92 88 86 83 82 87 87 86 84 82 81 82 80 77 76 76 76 75 74 75 78 79 76 76 76 74 75 83 83
155 161 162 148 139 133 127 120 116 113 111 108 105 99 94 90 88 86 84 85 86 86 84 82 80 80 79 78 77 77 75 74 72 73 79 81 79 75 75 75 78 82 82
153 157 156 143 139 133 128 122 119 115 113 111 106 101 98 95 91 88 86 84 84 84 82 81 80 81 80 79 79 77 75 73 69 72 77 77 79 76 75 76 77 79 81
150 152 148 140 138 136 132 126 122 118 115 112 106 103 101 97 92 89 86 84 82 82 80 80 79 80 81 80 79 77 74 73 73 77 77 76 77 76 76 76 77 78 81
148 149 144 141 136 134 133 128 125 121 118 114 109 106 103 98 94 91 88 85 82 81 80 79 78 79 81 80 79 77 73 72 80 78 78 77 78 77 77 76 77 78 80
147 146 143 143 137 132 132 130 126 122 119 117 114 109 104 99 95 92 89 87 84 82 79 80 79 79 80 79 78 76 71 68 78 78 77 77 76 77 78 77 77 78 80
142 141 143 139 135 133 130 123 122 120 118 116 114 109 104 100 96 93 90 87 84 81 80 80 80 79 81 78 75 73 67 69 79 78 76 75 72 75 77 77 76 78 80
128 131 132 137 134 130 127 126 123 120 118 115 112 107 103 100 98 95 92 89 86 82 81 81 80 80 81 79 75 71 67 66 78 75 74 72 71 74 76 76 76 76 77
120 123 126 128 131 132 131 127 125 121 118 115 111 107 103 101 98 95 95 92 90 86 82 82 79 79 80 77 73 68 65 71 75 74 71 70 70 74 76 77 77 76 76
133 134 129 131 129 128 125 122 123 120 117 116 110 105 106 108 103 98 91 92 92 88 84 82 80 77 77 75 69 64 65 72 74 69 68 68 73 75 76 75 75 75 76
165 158 146 142 138 133 126 128 132 131 126 123 122 119 112 105 96 95 90 88 88 88 86 82 81 76 72 76 69 62 69 71 71 69 64 65 74 78 77 75 73 72 75
175 164 161 153 147 139 126 120 115 124 124 123 122 120 114 105 103 98 97 95 91 90 88 85 82 75 74 73 70 68 66 68 70 70 62 65 72 76 78 77 74 74 75
177 174 167 159 153 145 135 125 120 117 116 115 119 122 117 108 105 105 98 97 93 87 89 84 81 82 79 77 74 73 68 68 71 71 63 63 70 73 75 76 73 73 74
187 184 177 167 163 151 142 133 132 128 126 125 122 122 121 114 113 111 102 96 90 86 90 92 91 87 82 78 75 74 71 70 71 75 70 61 66 70 72 73 73 72 71
196 195 186 175 169 155 149 146 138 134 132 130 127 131 130 122 120 115 106 98 92 90 94 99 100 95 85 82 78 73 71 69 69 69 72 67 62 65 67 69 69 69 68
203 198 194 183 172 168 163 160 148 139 139 133 132 138 133 128 130 126 115 107 102 104 108 105 104 100 94 90 85 76 70 68 70 68 66 66 64 64 66 65 64 65 64
208 202 197 185 176 173 169 165 154 148 142 141 143 144 140 137 138 132 125 119 123 122 122 117 116 111 104 100 94 82 76 73 70 69 68 66 64 62 64 63 62 62 61
215 204 194 185 180 174 168 160 154 151 146 148 150 148 147 146 149 143 133 134 141 136 130 127 130 122 116 107 100 88 78 75 70 71 71 65 63 64 63 62 62 59 60
225 206 197 187 182 173 165 158 148 152 150 150 154 157 157 157 158 150 141 149 150 147 144 146 139 123 120 120 110 89 77 79 74 71 70 66 62 62 62 63 62 57 56
256 215 202 193 192 183 184 182 191 196 185 169 162 164 167 166 163 158 152 158 162 162 159 156 145 133 125 137 132 115 101 91 89 71 69 69 65 61 62 59 57 53 51
285 254 226 214 205 201 201 198 200 200 202 180 163 166 173 173 170 169 170 170 172 167 166 165 158 152 156 175 167 166 177 185 176 153 111 80 59 58 57 55 57 52 51
313 275 248 234 222 216 203 186 165 173 178 184 187 182 181 178 176 177 180 176 178 177 179 177 178 174 179 190 186 191 195 205 182 188 193 186 109 26 42 49 55 51 48
313 297 267 247 231 219 206 194 193 203 212 211 199 193 186 186 184 183 184 184 183 186 187 183 186 188 189 190 187 219 234 178 200 199 202 206 230 259 273 314 31 44 40
329 321 294 260 240 222 212 206 205 214 219 208 195 194 192 190 190 187 186 187 187 191 192 189 191 193 200 197 192 190 189 193 219 217 226 225 240 248 257 256 247 244 243
356 350 333 293 260 240 223 215 213 214 212 202 201 199 200 198 197 195 191 193 193 192 194 194 196 202 202 200 199 198 199 200 203 212 228 238 247 251 254 246 237 232 233
Height
1519 1520 1522 1524 1525 1526 1527 1528 1529 1529 1530 1530 1530 1531 1531 1531 1531 1531 1531 1531 1532 1532 1532 1532 1533 1532 1533 1533 1533 1533 1533 1533 1533 1533 1533 1533 1534 1534 1535 1535 1536 1536 1536
1518 1520 1522 1524 1525 1526 1527 1528 1529 1530 1530 1530 1531 1531 1532 1532 1532 1532 1532 1533 1533 1533 1533 1533 1534 1534 1534 1534 1534 1534 1535 1535 1535 1535 1535 1536 1536 1537 1537 1537 1538 1538 1538
1518 1520 1522 1523 1525 1526 1527 1528 1529 1530 1530 1531 1531 1532 1532 1532 1533 1533 1533 1533 1534 1534 1534 1535 1535 1535 1535 1535 1535 1536 1536 1537 1537 1537 1538 1538 1539 1539 1539 1540 1540 1540 1540
1518 1520 1521 1523 1525 1526 1527 1528 1529 1530 1530 1531 1532 1532 1532 1533 1533 1534 1534 1534 1534 1535 1535 1536 1536 1536 1536 1536 1536 1537 1537 1538 1538 1539 1540 1540 1541 1541 1541 1542 1542 1542 1542
1518 1520 1521 1523 1525 1526 1527 1528 1529 1530 1530 1531 1532 1532 1533 1533 1534 1534 1534 1534 1535 1535 1536 1536 1537 1537 1537 1537 1538 1538 1539 1539 1540 1540 1541 1542 1542 1543 1543 1543 1544 1544 1544
1518 1520 1521 1523 1525 1526 1527 1528 1529 1530 1531 1531 1532 1532 1533 1533 1534 1534 1535 1535 1535 1536 1537 1537 1537 1538 1538 1538 1539 1539 1540 1540 1541 1542 1542 1543 1543 1544 1544 1545 1545 1546 1546
1518 1520 1521 1523 1524 1526 1527 1528 1529 1530 1531 1531 1532 1533 1533 1534 1534 1535 1535 1536 1536 1536 1537 1537 1538 1538 1539 1539 1540 1540 1541 1542 1542 1543 1543 1544 1545 1545 1545 1546 1546 1547 1547
1518 1519 1521 1522 1524 1526 1527 1528 1528 1529 1530 1531 1532 1533 1533 1534 1534 1535 1535 1536 1536 1537 1537 1538 1538 1539 1539 1540 1540 1541 1542 1543 1543 1544 1544 1545 1545 1546 1546 1547 1547 1547 1548
1517 1519 1520 1522 1524 1525 1526 1527 1528 1529 1530 1531 1532 1532 1533 1534 1534 1535 1536 1536 1537 1537 1537 1538 1539 1539 1540 1540 1541 1542 1542 1543 1544 1544 1545 1546 1546 1547 1547 1547 1548 1548 1549
1516 1518 1519 1521 1523 1524 1525 1527 1528 1529 1530 1530 1531 1532 1533 1534 1534 1535 1535 1536 1536 1537 1537 1538 1539 1539 1540 1541 1541 1542 1543 1544 1545 1545 1546 1546 1547 1547 1547 1548 1548 1549 1549
1515 1517 1518 1520 1521 1523 1524 1525 1527 1528 1529 1530 1530 1531 1532 1533 1534 1534 1535 1535 1536 1537 1537 1538 1539 1539 1540 1541 1542 1543 1544 1544 1545 1546 1546 1547 1547 1547 1548 1548 1549 1549 1549
1513 1515 1516 1518 1519 1521 1522 1524 1525 1526 1527 1528 1529 1530 1531 1532 1533 1533 1534 1535 1535 1536 1537 1537 1538 1539 1540 1541 1542 1543 1544 1544 1545 1546 1546 1547 1548 1548 1548 1548 1549 1549 1550
1512 1513 1514 1516 1517 1519 1521 1522 1523 1524 1525 1527 1528 1529 1530 1531 1532 1533 1533 1534 1535 1535 1536 1537 1538 1538 1539 1540 1541 1542 1543 1544 1545 1545 1546 1547 1548 1548 1548 1548 1549 1549 1549
1510 1511 1512 1514 1515 1517 1518 1520 1521 1522 1523 1525 1526 1527 1528 1529 1530 1531 1532 1533 1533 1534 1535 1536 1537 1538 1539 1540 1541 1542 1543 1543 1544 1545 1545 1546 1547 1548 1548 1548 1548 1549 1549
1507 1509 1510 1511 1513 1515 1516 1518 1519 1520 1521 1523 1524 1525 1526 1527 1529 1530 1531 1531 1532 1533 1533 1535 1536 1537 1538 1539 1540 1541 1542 1543 1543 1544 1545 1546 1546 1547 1547 1548 1548 1548 1549
1505 1506 1508 1509 1511 1512 1514 1515 1517 1518 1519 1521 1522 1523 1525 1526 1527 1528 1529 1530 1531 1531 1532 1533 1534 1536 1537 1538 1539 1540 1541 1542 1542 1543 1544 1545 1545 1546 1547 1547 1547 1548 1548
1502 1504 1505 1507 1508 1510 1512 1513 1515 1516 1517 1518 1520 1521 1522 1524 1525 1526 1527 1528 1529 1530 1531 1532 1533 1534 1536 1537 1538 1539 1540 1540 1541 1542 1543 1543 1544 1545 1545 1546 1546 1546 1547
1499 1501 1502 1504 1505 1507 1509 1510 1512 1513 1515 1516 1517 1519 1520 1521 1523 1524 1525 1526 1527 1529 1530 1530 1532 1533 1534 1535 1536 1537 1538 1539 1540 1541 1541 1542 1542 1543 1543 1544 1544 1545 1545
1496 1498 1499 1501 1502 1504 1506 1508 1509 1511 1512 1513 1514 1516 1517 1518 1520 1522 1523 1524 1525 1527 1528 1529 1530 1531 1532 1533 1534 1535 1536 1537 1538 1539 1540 1540 1541 1541 1541 1542 1542 1543 1543
1494 1495 1496 1497 1499 1501 1503 1504 1506 1507 1509 1510 1511 1513 1514 1516 1517 1519 1520 1522 1523 1524 1525 1526 1528 1529 1530 1531 1532 1533 1534 1535 1536 1537 1538 1538 1539 1539 1539 1540 1540 1541 1541
1490 1491 1492 1494 1496 1498 1499 1500 1502 1503 1505 1506 1508 1509 1511 1513 1514 1516 1517 1519 1520 1521 1523 1524 1525 1526 1527 1528 1530 1531 1532 1533 1534 1535 1536 1536 1537 1537 1538 1538 1538 1539 1539
1487 1488 1489 1490 1492 1494 1496 1497 1499 1500 1502 1503 1505 1506 1507 1509 1511 1512 1514 1515 1517 1518 1520 1521 1522 1523 1524 1526 1527 1529 1531 1533 1532 1532 1533 1534 1534 1535 1535 1535 1536 1536 1536
1484 1485 1486 1487 1489 1490 1492 1494 1495 1497 1498 1500 1501 1502 1504 1505 1507 1509 1510 1512 1513 1515 1516 1517 1519 1520 1521 1523 1524 1527 1529 1529 1530 1530 1530 1531 1531 1532 1532 1533 1533 1533 1534
1482 1483 1483 1484 1486 1487 1488 1490 1491 1492 1493 1495 1497 1498 1500 1501 1503 1505 1506 1508 1509 1511 1512 1514 1515 1517 1519 1519 1521 1523 1525 1525 1527 1527 1528 1528 1528 1529 1529 1530 1530 1531 1531
1480 1480 1480 1481 1482 1483 1485 1486 1487 1488 1490 1491 1493 1494 1496 1497 1499 1500 1501 1503 1505 1506 1508 1510 1511 1513 1515 1516 1517 1519 1521 1522 1523 1524 1524 1525 1525 1526 1526 1526 1527 1527 1528
1478 1478 1477 1478 1478 1479 1481 1482 1483 1484 1485 1487 1488 1489 1491 1492 1494 1495 1497 1498 1500 1502 1504 1505 1507 1509 1510 1512 1514 1515 1517 1518 1519 1521 1521 1521 1521 1522 1522 1523 1523 1524 1524